• In Hungary
  • List of Countries
  • For 7 days
  • Water Temperature
  • Satellite Maps
  • Weather Map
  • News
  • Weather Widgets
  • user-avatar
    Login

    Hourly Weather Stepanischevo

    Today, 26 September, Wednesday

    Time Temperature Precipitation Wind Pressure Humidity
    00:00 +6°C° 0 mm 4 mps 746 mmHg 79%
    01:00 +5°C° 0 mm 4 mps 747 mmHg 79%
    02:00 +5°C° 0 mm 3 mps 747 mmHg 79%
    03:00 +5°C° 0 mm 3 mps 748 mmHg 79%
    04:00 +5°C° 0 mm 3 mps 748 mmHg 80%
    05:00 +5°C° 0 mm 3 mps 749 mmHg 81%
    06:00 +5°C° 0 mm 3 mps 749 mmHg 82%
    07:00 +5°C° 0 mm 3 mps 750 mmHg 79%
    08:00 +6°C° 0 mm 4 mps 751 mmHg 76%
    09:00 +6°C° 0 mm 4 mps 751 mmHg 74%
    10:00 +7°C° 0 mm 4 mps 752 mmHg 69%
    11:00 +8°C° 0 mm 4 mps 752 mmHg 64%
    12:00 +10°C° 0 mm 4 mps 752 mmHg 59%
    13:00 +11°C° 0 mm 4 mps 752 mmHg 57%
    14:00 +11°C° 0 mm 4 mps 752 mmHg 55%
    15:00 +11°C° 0 mm 4 mps 752 mmHg 53%
    16:00 +10°C° 0 mm 4 mps 752 mmHg 55%
    17:00 +10°C° 0 mm 3 mps 752 mmHg 58%
    18:00 +9°C° 0 mm 2 mps 752 mmHg 61%
    19:00 +8°C° 0 mm 2 mps 752 mmHg 63%
    20:00 +7°C° 0 mm 3 mps 753 mmHg 66%
    21:00 +7°C° 0 mm 3 mps 753 mmHg 68%
    22:00 +5°C° 0 mm 3 mps 752 mmHg 68%
    23:00 +5°C° 0 mm 4 mps 752 mmHg 68%

    Tomorrow, 27 September, Thursday

    Time Temperature Precipitation Wind Pressure Humidity
    00:00 +5°C° 0 mm 4 mps 751 mmHg 67%
    01:00 +5°C° 0 mm 5 mps 751 mmHg 66%
    02:00 +5°C° 0 mm 5 mps 750 mmHg 65%
    03:00 +4°C° 0 mm 6 mps 750 mmHg 64%
    04:00 +5°C° 0 mm 7 mps 749 mmHg 63%
    05:00 +5°C° 0 mm 7 mps 748 mmHg 61%
    06:00 +5°C° 0 mm 8 mps 747 mmHg 59%
    07:00 +5°C° 0.4 mm 9 mps 746 mmHg 61%
    08:00 +5°C° 0.4 mm 10 mps 745 mmHg 63%
    09:00 +5°C° 0.4 mm 10 mps 745 mmHg 64%
    10:00 +5°C° 0.6 mm 10 mps 744 mmHg 68%
    11:00 +5°C° 0.6 mm 10 mps 744 mmHg 72%
    12:00 +5°C° 0.6 mm 10 mps 743 mmHg 75%
    13:00 +6°C° 0.4 mm 10 mps 743 mmHg 77%
    14:00 +6°C° 0.4 mm 9 mps 743 mmHg 79%
    15:00 +6°C° 0.4 mm 9 mps 743 mmHg 81%
    16:00 +7°C° 0.1 mm 8 mps 743 mmHg 81%
    17:00 +7°C° 0.1 mm 8 mps 743 mmHg 81%
    18:00 +8°C° 0.1 mm 7 mps 743 mmHg 81%
    19:00 +8°C° 0 mm 7 mps 744 mmHg 83%
    20:00 +8°C° 0 mm 6 mps 744 mmHg 85%
    21:00 +8°C° 0 mm 6 mps 744 mmHg 87%
    22:00 +7°C° 0 mm 6 mps 745 mmHg 89%
    23:00 +7°C° 0 mm 5 mps 745 mmHg 90%

    Day after tomorrow, 28 September, Friday

    Time Temperature Precipitation Wind Pressure Humidity
    00:00 +7°C° 0 mm 5 mps 745 mmHg 91%
    01:00 +7°C° 0 mm 5 mps 745 mmHg 92%
    02:00 +7°C° 0 mm 5 mps 745 mmHg 92%
    03:00 +7°C° 0 mm 5 mps 745 mmHg 93%
    04:00 +7°C° 0 mm 5 mps 745 mmHg 93%
    05:00 +7°C° 0 mm 5 mps 744 mmHg 94%
    06:00 +7°C° 0 mm 5 mps 744 mmHg 94%
    07:00 +8°C° 0 mm 6 mps 744 mmHg 88%
    08:00 +9°C° 0 mm 7 mps 743 mmHg 83%
    09:00 +10°C° 0 mm 8 mps 743 mmHg 77%
    10:00 +11°C° 0 mm 9 mps 743 mmHg 73%
    11:00 +12°C° 0 mm 9 mps 743 mmHg 69%
    12:00 +14°C° 0 mm 10 mps 742 mmHg 65%
    13:00 +15°C° 0 mm 9 mps 742 mmHg 66%
    14:00 +15°C° 0 mm 9 mps 742 mmHg 68%
    15:00 +15°C° 0 mm 8 mps 741 mmHg 70%
    16:00 +15°C° 0 mm 8 mps 741 mmHg 72%
    17:00 +15°C° 0 mm 7 mps 741 mmHg 74%
    18:00 +14°C° 0 mm 7 mps 740 mmHg 77%
    19:00 +14°C° 0.4 mm 7 mps 741 mmHg 78%
    20:00 +14°C° 0.4 mm 7 mps 741 mmHg 80%
    21:00 +14°C° 0.4 mm 7 mps 742 mmHg 81%
    22:00 +13°C° 0.1 mm 6 mps 743 mmHg 80%
    23:00 +10°C° 0.1 mm 5 mps 743 mmHg 79%

    29 September, Saturday

    Time Temperature Precipitation Wind Pressure Humidity
    00:00 +10°C° 0.1 mm 4 mps 744 mmHg 78%
    01:00 +9°C° 0 mm 3 mps 745 mmHg 78%
    02:00 +8°C° 0 mm 3 mps 745 mmHg 79%
    03:00 +7°C° 0 mm 2 mps 746 mmHg 79%
    04:00 +6°C° 0 mm 2 mps 747 mmHg 80%
    05:00 +6°C° 0 mm 2 mps 747 mmHg 82%
    06:00 +6°C° 0 mm 1 mps 748 mmHg 83%
    07:00 +7°C° 0 mm 1 mps 748 mmHg 76%
    08:00 +8°C° 0 mm 1 mps 748 mmHg 70%
    09:00 +9°C° 0 mm 1 mps 749 mmHg 64%
    10:00 +10°C° 0 mm 1 mps 749 mmHg 58%
    11:00 +12°C° 0 mm 2 mps 749 mmHg 52%
    12:00 +13°C° 0 mm 2 mps 750 mmHg 46%
    13:00 +13°C° 0 mm 2 mps 749 mmHg 44%
    14:00 +13°C° 0 mm 2 mps 749 mmHg 43%
    15:00 +14°C° 0 mm 1 mps 749 mmHg 42%
    16:00 +13°C° 0 mm 1 mps 750 mmHg 46%
    17:00 +12°C° 0 mm 1 mps 750 mmHg 49%
    18:00 +12°C° 0 mm 1 mps 750 mmHg 53%
    19:00 +11°C° 0 mm 1 mps 750 mmHg 55%
    20:00 +10°C° 0 mm 2 mps 751 mmHg 57%
    21:00 +9°C° 0 mm 2 mps 751 mmHg 59%
    22:00 +9°C° 0 mm 2 mps 751 mmHg 61%
    23:00 +9°C° 0 mm 2 mps 751 mmHg 62%

    30 September, Sunday

    Time Temperature Precipitation Wind Pressure Humidity
    00:00 +9°C° 0 mm 2 mps 752 mmHg 64%
    01:00 +8°C° 0 mm 2 mps 752 mmHg 65%
    02:00 +7°C° 0 mm 2 mps 752 mmHg 66%
    03:00 +7°C° 0 mm 2 mps 752 mmHg 68%
    04:00 +6°C° 0 mm 2 mps 752 mmHg 67%
    05:00 +6°C° 0 mm 2 mps 753 mmHg 67%
    06:00 +5°C° 0 mm 2 mps 753 mmHg 67%
    07:00 +6°C° 0 mm 2 mps 753 mmHg 63%
    08:00 +7°C° 0 mm 2 mps 754 mmHg 58%
    09:00 +8°C° 0 mm 2 mps 754 mmHg 54%
    10:00 +9°C° 0 mm 2 mps 754 mmHg 50%
    11:00 +12°C° 0 mm 1 mps 754 mmHg 47%
    12:00 +13°C° 0 mm 1 mps 754 mmHg 43%
    13:00 +13°C° 0 mm 1 mps 754 mmHg 42%
    14:00 +13°C° 0 mm 1 mps 754 mmHg 42%
    15:00 +13°C° 0 mm 1 mps 753 mmHg 41%
    16:00 +12°C° 0 mm 1 mps 753 mmHg 45%
    17:00 +11°C° 0 mm 1 mps 753 mmHg 48%
    18:00 +10°C° 0 mm 1 mps 753 mmHg 52%
    19:00 +10°C° 0 mm 1 mps 753 mmHg 53%
    20:00 +9°C° 0 mm 1 mps 753 mmHg 55%
    21:00 +9°C° 0 mm 1 mps 754 mmHg 56%
    22:00 +8°C° 0 mm 2 mps 753 mmHg 58%
    23:00 +7°C° 0 mm 2 mps 753 mmHg 59%

    1 October, Monday

    Time Temperature Precipitation Wind Pressure Humidity
    00:00 +7°C° 0 mm 2 mps 753 mmHg 61%
    01:00 +7°C° 0 mm 2 mps 753 mmHg 63%
    02:00 +7°C° 0 mm 2 mps 753 mmHg 64%
    03:00 +6°C° 0 mm 2 mps 753 mmHg 66%
    04:00 +6°C° 0 mm 2 mps 753 mmHg 68%
    05:00 +6°C° 0 mm 2 mps 753 mmHg 70%
    06:00 +6°C° 0 mm 2 mps 753 mmHg 71%
    07:00 +7°C° 0 mm 2 mps 753 mmHg 68%
    08:00 +8°C° 0 mm 3 mps 753 mmHg 65%
    09:00 +9°C° 0 mm 3 mps 753 mmHg 61%
    10:00 +11°C° 0 mm 3 mps 753 mmHg 57%
    11:00 +12°C° 0 mm 3 mps 753 mmHg 52%
    12:00 +14°C° 0 mm 4 mps 753 mmHg 47%
    13:00 +14°C° 0 mm 4 mps 753 mmHg 46%
    14:00 +14°C° 0 mm 4 mps 752 mmHg 45%
    15:00 +15°C° 0 mm 4 mps 752 mmHg 44%
    16:00 +13°C° 0 mm 3 mps 752 mmHg 48%
    17:00 +13°C° 0 mm 2 mps 752 mmHg 53%
    18:00 +12°C° 0 mm 2 mps 751 mmHg 57%
    19:00 +10°C° 0 mm 2 mps 751 mmHg 58%
    20:00 +10°C° 0 mm 2 mps 752 mmHg 59%
    21:00 +9°C° 0 mm 2 mps 752 mmHg 60%
    22:00 +9°C° 0 mm 2 mps 752 mmHg 61%
    23:00 +8°C° 0 mm 2 mps 752 mmHg 61%
    Show more